Weather History for Paganella, Italy

Change the Weather History Date:

Friday, November 15, 2013

  Actual Average Record
Temperature  
Mean Temperature 28 °F -  
Max Temperature 32 °F 32 °F 42 °F (2011)
Min Temperature 23 °F 24 °F 8 °F (2007)
Degree Days  
Heating Degree Days 38    
Moisture  
Dew Point 26 °F    
Average Humidity 95    
Maximum Humidity 100    
Minimum Humidity 89    
Precipitation  
Precipitation 0.20 in 0.05 in - ()
Sea Level Pressure  
Sea Level Pressure 29.99 in    
Wind  
Wind Speed 4 mph ()    
Max Wind Speed 12 mph    
Max Gust Speed -    
Visibility 1.5 miles    
Events Fog , Snow    
Averages and records for this station are not official NWS values.
T = Trace of Precipitation, MM = Missing Value Source: Averaged Metar Reports

Daily Weather History Graph

Daily Weather History Graph

Search for Another Location

Airport:

Trip Planner

Search our weather history database for the weather conditions in past years. The results will help you decide how hot, cold, wet, or windy it might be!

Date:

Astronomy

Nov. 15, 2013 Rise Set
Actual Time 7:16 AM CET 4:43 PM CET
Civil Twilight 6:44 AM CET 5:16 PM CET
Nautical Twilight 6:07 AM CET 5:52 PM CET
Astronomical Twilight 5:32 AM CET 6:27 PM CET
Moon 3:35 PM CET (11/15) 4:49 AM CET (11/15)
Length of Visible Light 10h 32m
Length of Day
9h 27m
Waxing Gibbous, 95% of the Moon is Illuminated
Nov 15
Waxing Gibbous
Nov 17
Full
Nov 25
Last Quarter
Dec 3
New
Dec 9
First Quarter

Hourly Weather History & Observations

Time (CET) Temp. Windchill Dew Point Humidity Pressure Visibility Wind Dir Wind Speed Gust Speed Precip Events Conditions
12:00 AM 26 °F - 24 °F 89%  in 0 mi North 3.5 mph - - Snow Light Snow
12:55 AM 24.8 °F - 23.0 °F 93% 29.80 in - North 2.3 mph - N/A Fog Light Freezing Fog
1:00 AM 25 °F - 23 °F 91%  in 0 mi North 2.3 mph - - Snow Light Snow
1:55 AM 24.8 °F - 23.0 °F 93% 29.80 in - North 2.3 mph - N/A Fog Light Freezing Fog
2:00 AM 24 °F - 22 °F 90%  in 0 mi North 2.3 mph - - Snow Light Snow
2:55 AM 23.0 °F 18.4 °F 23.0 °F 100% 29.80 in 0.0 mi North 3.5 mph - N/A Fog Light Freezing Fog
3:00 AM 24 °F - 22 °F 91%  in 0 mi North 3.5 mph - - Fog Heavy Fog
3:55 AM 23.0 °F - 23.0 °F 100% 29.80 in 0.0 mi North 2.3 mph - N/A Fog Light Freezing Fog
4:00 AM 23 °F - 22 °F 95%  in 0 mi North 2.3 mph - - Fog Heavy Fog
4:55 AM 24.8 °F 20.5 °F 23.0 °F 93% 29.80 in 0.0 mi North 3.5 mph - N/A Fog Light Freezing Fog
5:00 AM 24 °F - 23 °F 93%  in 0 mi North 3.5 mph - - Fog Heavy Fog
5:55 AM 24.8 °F 20.5 °F 23.0 °F 93% 29.80 in 0.0 mi North 3.5 mph - N/A Fog Light Freezing Fog
6:00 AM 25 °F - 24 °F 92%  in 0 mi North 3.5 mph - - Fog Heavy Fog
6:55 AM 24.8 °F 20.5 °F 24.8 °F 100% 29.83 in 0.0 mi North 3.5 mph - N/A Fog Light Freezing Fog
7:00 AM 26 °F - 24 °F 90%  in 0 mi North 3.5 mph - - Fog Heavy Fog
7:55 AM 24.8 °F 19.1 °F 24.8 °F 100% 29.86 in - North 4.6 mph - N/A Fog Light Freezing Fog
8:00 AM 26 °F - 24 °F 90%  in 0 mi North 4.6 mph - - Snow Light Snow
8:55 AM 26.6 °F 21.2 °F 24.8 °F 93% 29.89 in - WSW 4.6 mph - N/A Fog Light Freezing Fog
9:00 AM 26 °F - 25 °F 92%  in 0 mi WSW 4.6 mph - - Snow Light Snow
9:55 AM 26.6 °F 19.1 °F 24.8 °F 93% 29.92 in - North 6.9 mph - N/A Fog Light Freezing Fog
10:00 AM 26 °F - 25 °F 96%  in 0 mi North 6.9 mph - - Snow Snow
10:55 AM 26.6 °F 20.0 °F 24.8 °F 93% 29.95 in 0.2 mi North 5.8 mph - N/A Fog , Snow Light Snow
11:55 AM 26.6 °F 16.8 °F 24.8 °F 93% 29.98 in 0.2 mi North 10.4 mph - N/A Fog , Snow Light Snow
12:55 PM 26.6 °F - 26.6 °F 100% 29.98 in 0.2 mi NNE 2.3 mph - N/A Fog , Snow Light Snow
1:00 PM 27 °F - 26 °F 94%  in 0 mi NNE 2.3 mph - - Snow Light Snow
1:55 PM 26.6 °F - 26.6 °F 100% 30.01 in 0.2 mi North 2.3 mph - N/A Fog , Snow Light Snow
2:55 PM 28.4 °F 19.7 °F 26.6 °F 93% 30.06 in 0.1 mi North 9.2 mph - N/A Fog , Snow Light Snow
3:55 PM 28.4 °F 20.4 °F 28.4 °F 100% 30.09 in - North 8.1 mph - N/A Fog Light Freezing Fog
4:00 PM 29 °F - 28 °F 96%  in 0 mi North 8.1 mph - - Snow Light Snow
4:55 PM 28.4 °F 18.5 °F 28.4 °F 100% 30.12 in - North 11.5 mph - N/A Fog Light Freezing Fog
5:00 PM 29 °F - 28 °F 96%  in 0 mi North 11.5 mph - - Snow Light Snow
5:55 PM 32.0 °F 23.0 °F 32.0 °F 100% 30.12 in 0.3 mi North 11.5 mph - N/A Fog , Snow Light Snow
6:55 PM 30.2 °F 25.4 °F 30.2 °F 100% 30.15 in - North 4.6 mph - N/A   Clear
7:00 PM 30 °F - 30 °F 98%  in 19 mi North 4.6 mph - - Snow Light Snow
7:55 PM 30.2 °F 25.4 °F 30.2 °F 100% 30.15 in - North 4.6 mph - N/A   Clear
8:00 PM 30 °F - 30 °F 98%  in 19 mi North 4.6 mph - -   Mostly Cloudy
8:55 PM 30.2 °F 23.4 °F 28.4 °F 93% 30.18 in - North 6.9 mph - N/A   Clear
9:00 PM 30 °F - 29 °F 93%  in 25 mi North 6.9 mph - -   Mostly Cloudy
9:55 PM 30.2 °F 24.3 °F 28.4 °F 93% 30.18 in - North 5.8 mph - N/A   Clear
10:00 PM 31 °F - 29 °F 89%  in 25 mi North 5.8 mph - -   Mostly Cloudy
10:55 PM 32.0 °F 27.5 °F 30.2 °F 93% 30.21 in - North 4.6 mph - N/A   Clear
11:55 PM 32.0 °F 27.5 °F 30.2 °F 93% 30.21 in - North 4.6 mph - N/A   Clear